Other Public Products
Issued by NWS Grand Forks, ND

Home | Current Version | Previous Version | Text Only | Print | Product List | Glossary Off
Versions: 1 2 3 4 5 6 7 8 9 10 11 12 13 14 15 16 17 18 19 20 21 22 23 24 25 26 27 28 29 30 31 32 33 34 35 36 37 38 39 40 41 42 43 44 45 46 47 48 49 50

000
FPUS83 KFGF 212110
OPUFGF
PRAIRIE TO PINES WEATHER ROUNDUP
NATIONAL WEATHER SERVICE EASTERN NORTH DAKOTA/GRAND FORKS ND
400 PM CDT SAT OCT 21 2017

 **SATELLITE DATA USED TO AUGMENT SKY COVER AT AUTOMATED STATIONS**
 *****  WEATHER ACROSS EASTERN NORTH DAKOTA  *****

CITY           SKY/WX    TMP DP  RH WIND       PRES   REMARKS
GRAND FORKS    LGT RAIN  61  46  57 W22G31    29.50R
GRAND FORKS AF PTSUNNY   57  44  60 W18G28    29.51R
GRAND CITY NWS NOT AVBL
BUXTON         NOT AVBL
DEVILS LAKE    LGT RAIN  51  42  71 W20       29.54R
FARGO          CLOUDY    60  46  59 W20       29.55R
WAHPETON ARPT  NOT AVBL
$$

 *****  WEATHER ACROSS CENTRAL AND WESTERN NORTH DAKOTA  *****

CITY           SKY/WX    TMP DP  RH WIND       PRES   REMARKS
JAMESTOWN      LGT RAIN  49  43  80 W16G28    29.60R
BISMARCK       CLOUDY    51  38  60 NW16G33   29.67R
MINOT          CLOUDY    51  36  56 W29G39    29.56S
MINOT AFB      CLOUDY    50  37  60 W23G32    29.54R
GARRISON         N/A     49  36  61 NW28G38   29.61R
WILLISTON      CLOUDY    51  33  50 NW23G36   29.67R
DICKINSON      CLOUDY    50  33  52 W26G36    29.68R
HETTINGER      PTSUNNY   53  30  41 NW32G41   29.75R
$$

 *****  OTHER OBSERVATIONS NORTHEAST NORTH DAKOTA  *****

CITY           SKY/WX    TMP DP  RH WIND       PRES   REMARKS
WALHALLA       FAIR     N/A N/A N/A W13G24    29.46R
LANGDON        FAIR      54  43  66 W23G31    29.50S
CAVALIER       FAIR      57  43  58 W16G25    29.48R
GRAFTON        MOCLDY    55  46  71 W20G26    29.50R
CANDO          CLOUDY    52  41  66 W20G29    29.52S
FORT TOTTEN      N/A     50  42  73 W10       29.95S
ROLLA          CLOUDY    50  39  66 W14G22    29.50R
RUGBY          FAIR      48  43  81 W18       29.52S
 ***** THE ABOVE OBSERVATIONS ARE NON NWS ARE NOT QUALITY
        CONTROLLED AND MAY MIS-REPORT RAIN FOR SNOW...
$$

 *****  OTHER OBSERVATIONS SOUTHEAST NORTH DAKOTA *****

CITY           SKY/WX    TMP DP  RH WIND       PRES   REMARKS
COOPERSTOWN    CLOUDY    54  43  66 W28G35    29.56S
VALLEY CITY    CLOUDY    52  43  71 W18       29.60R
OAKES          NOT AVBL
GWINNER        CLOUDY    54  41  62 W13G22    29.63R
SHEYENNE NWR     N/A     55  43  63 W14       29.95S
BUFFALO        NOT AVBL
WYNDMERE       NOT AVBL
 ***** THE ABOVE OBSERVATIONS ARE NON NWS ARE NOT QUALITY
       CONTROLLED AND MAY MIS-REPORT RAIN FOR SNOW...
$$

  *****  WEATHER ACROSS NORTHERN MINNESOTA  *****

CITY           SKY/WX    TMP DP  RH WIND       PRES   REMARKS
FLAG ISLAND    DRIZZLE   55  52  88 S12       29.44S
WARROAD        PTSUNNY   63  57  82 S10       29.46R
ROSEAU         CLOUDY    63  46  55 S16       29.46R
HALLOCK        FAIR      64  41  42 W18G25    29.43F
THF RVR FALLS  NOT AVBL
HALSTAD        NOT AVBL
FOSSTON        DRIZZLE   52  46  82 SW8       29.54R
BAUDETTE       CLOUDY    64  58  80 S14G30    29.48R
WASKISH        CLOUDY    63  59  88 S8G16     29.51R
CROOKSTON      CLOUDY    63  43  48 W12       29.50F
$$
  *****  WEATHER ACROSS CENTRAL AND WEST MINNESOTA  *****

CITY           SKY/WX    TMP DP  RH WIND       PRES   REMARKS
BEMIDJI        DRIZZLE   60  60  97 SE6       29.50F
PARK RAPIDS    CLOUDY    65  61  87 S15       29.50S
WADENA         LGT RAIN  55  50  82 W15G22    29.55R
DETROIT LAKES  LGT RAIN  52  48  87 CALM      29.57R
MOORHEAD       CLOUDY    57  46  67 W12       29.56R
FERGUS FALLS   CLOUDY    55  48  76 W8        29.58R
ELBOW LAKE     CLOUDY    54  48  80 NW7       29.60R
MORRIS MN      CLOUDY    57  46  67 NW16      29.61R
STAPLES        LGT RAIN  64  61  88 SE12      29.52S
WHEATON        FAIR      57  45  62 W10G18    29.62R
$$
  *****  WEATHER ELSEWHERE ACROSS MINNESOTA  *****

CITY           SKY/WX    TMP DP  RH WIND       PRES   REMARKS
DULUTH         DRIZZLE   59  59 100 S15       29.65F FOG
INTRNTL FALLS  CLOUDY    63  56  78 S6G16     29.53S
ELY            CLOUDY    59  57  94 S14G20    29.63S
CLOQUET        CLOUDY    61  57  88 S8G16     29.65R FOG
BRAINERD       CLOUDY    63  60  90 S13       29.57S
HIBBING        CLOUDY    59  58  96 S12G22    29.60S FOG
ALEXANDRIA     CLOUDY    55  48  77 W17       29.60R
SAINT CLOUD    CLOUDY    65  62  90 S16G26    29.59R
MINNEAPOLIS    CLOUDY    68  61  78 S23G38    29.65F
$$

  *****  WEATHER ACROSS SOUTH DAKOTA  *****

CITY           SKY/WX    TMP DP  RH WIND       PRES   REMARKS
SIOUX FALLS    LGT RAIN  55  42  61 NW17G29   29.74R
BROOKINGS      CLOUDY    53  41  63 W18G28    29.72R
WATERTOWN      CLOUDY    51  41  68 W21G32    29.68R
HURON          CLOUDY    50  43  77 W12       29.76R
SISSETON         N/A     57  43  59 W22G35    29.62R
ABERDEEN       LGT RAIN  49  44  83 W9        29.71R
MITCHELL       CLOUDY    52  41  66 W15       29.79R
PIERRE         FAIR      57  36  45 W23G30    29.76R
MOBRIDGE       CLOUDY    54  39  57 W17       29.69R
RAPID CITY     FAIR      58  21  24 NW18G29   29.84R
$$

  *****  SOME WEATHER IN NEARBY STATES *****

CITY           SKY/WX    TMP DP  RH WIND       PRES   REMARKS
GLASGOW MT     FAIR      55  27  34 W28G37    29.75R
GREAT FALLS MT PTSUNNY   50  18  28 SW25G37   29.87S
CHEYENNE WY    FAIR      46  12  25 NW22G36   30.03R
SCOTTSBLUFF NE FAIR      59  11  15 NW20G31   29.94S
OMAHA NE       PTSUNNY   65  48  54 NW29G35   29.73R
DES MOINES IA  PTSUNNY   74  62  66 S22       29.75F
DAVENPORT IA   FAIR      78  60  53 S14G25    29.89S
CHICAGO IL     PTSUNNY   76  57  51 S17G28    29.97F
EAU CLAIRE WI  CLOUDY    67  58  72 S22G28    29.76S
LA CROSSE WI   CLOUDY    70  58  65 CALM      29.80F
$$

  *****  SOME NATIONAL WEATHER *****

CITY           SKY/WX    TMP DP  RH WIND       PRES   REMARKS
LA GUARDIA NY  PTSUNNY   72  48  42 S14       30.30R
RALEIGH NC     PTSUNNY   76  51  41 SE6       30.31S
ATLANTA GA     PTSUNNY   75  56  51 SE8       30.25R
NEW ORLEANS LA PTSUNNY   83  75  77 SE21      30.00F HX  90
OKLAHOMA CITY  PTSUNNY   77  64  64 S21G33    29.80S
ALBUQUERQUE NM FAIR      65  20  17 N12       30.08R
SALT LAKE CITY PTSUNNY   53  20  27 NW9       30.24R
LOS ANGELES CA FAIR      71  51  49 W14       30.03F
BOISE ID       CLOUDY    49  28  44 S8        30.15S
SEATTLE WA     LGT RAIN  49  47  93 E8        29.74F
$$

*** WEATHER ACROSS MANITOBA...SASKATCHEWAN AND ONTARIO ***
                ***ONTARIO***

CITY           SKY/WX    TMP DP  RH WIND       PRES   REMARKS
GERALDTON      PTSUNNY   64  50  59 S16       29.77R
THUNDER BAY    LGT RAIN  61  57  88 S9        29.72S
SIOUX LOOKOUT  CLOUDY    61  55  82 S8G17     29.55R
TORONTO        PTSUNNY   68  52  56 S8        30.22R
BIG TROUT LK   CLOUDY    46  41  81 SE13G20   29.56S
PICKLE LAKE    CLOUDY    64  54  68 S10G18    29.56R
DRYDEN         CLOUDY    63  55  77 S15G28    29.52S
KENORA         CLOUDY    63  55  77 S14G20    29.46S
$$
                *** MANITOBA***

CITY           SKY/WX    TMP DP  RH WIND       PRES   REMARKS
BRANDON        CLOUDY    52  39  62 W22G29    29.45R
DAUPHIN        CLOUDY    48  41  76 W23G29    29.37R
ISLAND LAKE    CLOUDY    66  55  68 S12       29.32R
PILOT MOUND      N/A     52  41  66 W13G20      N/A
THE PAS        CLOUDY    43  37  81 NW14      29.34R
THOMPSON       CLOUDY    54  43  66 N6        29.29S
WINNIPEG       PTSUNNY   63  41  45 SW15      29.40R
LYNN LAKE      CLOUDY    36  34  93 N10       29.39S
CHURCHILL      CLOUDY    37  34  87 SE14G21   29.44F
GILLAM         CLOUDY    52  41  66 SE7       29.35S
$$
                ***SASKATCHEWAN***

CITY           SKY/WX    TMP DP  RH WIND       PRES   REMARKS
ESTEVAN        CLOUDY    46  34  61 NW26G36   29.57R
KINDERSLEY     MOSUNNY   52  28  40 NW16G28   29.68R
LLOYDMINSTER   MOSUNNY   50  28  43 NW15G21   29.64R
PRINCE ALBERT  LGT RAIN  41  39  93 NW14G20   29.52R
REGINA         LGT RAIN  43  41  93 NW26G32   29.57R
YORKTON        CLOUDY    43  37  81 W16G25    29.44R



USA.gov is the U.S. government's official web portal to all federal, state and local government web resources and services.